PEGASUS DEB

Satellite information

Favourite Embed

Satellite Type and Status

DEBRISIN ORBIT

Key statistics

Satellite PEGASUS DEB at a glance.

Uptime

11532

Days in orbit

Revolutions

≈ 14.2

Per day

Orbit

LEO

Low Earth Orbit

Inclination

81.7

Latest

Satellite identification and parameters

Extended collection of information and parameters for PEGASUS DEB.

Object identification

Identified? True

Debris? True

Object name: PEGASUS DEB

International designator: 1994-029ABU

Object number (NORAD): 24817

Object ID (CCSDS): 24817

Country: UNITED STATES OF AMERICA (US)

Current information (Y/N): Y

RCS size: SMALL

Orbital parameters

Period: 101.514 minutes

Inclination: 81.6886 deg

SMA: 7208.465 km

Apoapsis: 1092.884 km

Periapsis: 567.776 km

RAAN: 173.3542 deg

Eccentricy: 0.03642303

Argument of periapsis: 265.5776 deg

Mean anomaly: 120.367 deg

Mean motion: 14.1853013 rev/day

Mean motion (dot): 0.00007052 rev/day2

B* drag term: 0.0017524285 1/REarth

Two-line elements (TLE)

Creation date: Dec. 14, 2025, 3:07 a.m.

Reference frame: TEME

Reference center: EARTH

Epoch: Dec. 13, 2025, 12:22 p.m. UTC

TLE line 0: 0 PEGASUS DEB

TLE line 1: 1 24817U 94029ABU 25347.51585706 .00007052 00000-0 17524-2 0 9999

TLE line 2: 2 24817 81.6886 173.3542 0364230 265.5776 120.3670 14.18530130494341

Live tracking on map

Real-time ground track for satellite PEGASUS DEB.

In-orbit conjunctions

A list of the most updated potential collisions computed for object PEGASUS DEB.

Target Orbit TCA Probability of collision Miss distance Type
FENGYUN 1C DEB SSO 2024-11-17 04:10:09 0.0001194516 51.0 (m) DEBRIS
FENGYUN 1C DEB SSO 2024-11-04 12:59:10 0.0002413906 42.0 (m) DEBRIS

Associated space launch

PEGASUS DEB was lifted into orbit during the mission ‘Pegasus HAPS | Space Test Experiments Platform 2 (STEP-2)’, on board a Pegasus HAPS space rocket.

The launch took place on May 19, 1994, 5:03 p.m. from Edwards Air Force Base.

For more information about the launch, click the button.

Launch to space Pegasus HAPS | Space Test Experiments Platform 2 (STEP-2)
Pegasus HAPS | Space Test Experiments Platform 2 (STEP-2)

Agency: N/A

Status: Launch Successful

Launch date: May 19, 1994, 5:03 p.m. UTC

Rocket: Pegasus HAPS

Launch pad: Edwards Air Force Base

Location: Air launch to orbit

...

Latest news about this satellite

There are no fresh news available about this satellite. Check back as we update our databases every day.


Newsletter sign-up

Weekly statistics, charts and insights to help you stay on top of the space industry.